KAL091 RKSI-KBOS

Flight info

Callsign KAL091
Flight time N/A
Altitude 33000
Route EGOBA2C EGOBA Y697 LANAT Y51 SAMON Y142 GTC Y512 OATIS Y889 PUTER A590 PLADO DCT 54N180E 56N170W 57N160W/N0481F350 58N150W 58N140W DCT SSR DCT 58N130W 57N120W 53N108W 51N100W/N0479F370 48N090W 45N080W DCT NOVON DCT WAYGO DCT PONCT JFUND2
Aircraft B77W/H-SDE1E2E3FGHIJ2J3J4J5M1RWXY/LB1D1

Departure

Time 2026-05-05 13:17
Airport Incheon International Airport (RKSI)

Arrival

Time N/A
Airport Boston Logan International Airport (KBOS)
Time Latitude Longitude Altitude Speed Heading
2026-05-05 12:54 37.46720 126.43703 36 ft 0 kts 330°
2026-05-05 13:05 37.46719 126.43704 37 ft 2 kts 330°
2026-05-05 13:05 37.46707 126.43712 37 ft 2 kts 330°
2026-05-05 13:05 37.46695 126.43720 34 ft 2 kts 332°
2026-05-05 13:06 37.46683 126.43728 36 ft 2 kts 334°
2026-05-05 13:06 37.46675 126.43733 34 ft 2 kts 337°
2026-05-05 13:06 37.46663 126.43738 36 ft 2 kts 346°
2026-05-05 13:06 37.46652 126.43740 35 ft 1 kts
2026-05-05 13:07 37.46643 126.43738 36 ft 1 kts 27°
2026-05-05 13:07 37.46634 126.43730 37 ft 1 kts 44°
2026-05-05 13:07 37.46631 126.43726 36 ft 1 kts 47°
2026-05-05 13:07 37.46627 126.43720 36 ft 1 kts 50°
2026-05-05 13:08 37.46624 126.43715 37 ft 1 kts 51°
2026-05-05 13:08 37.46623 126.43714 37 ft 0 kts 51°
2026-05-05 13:09 37.46626 126.43719 37 ft 3 kts 52°
2026-05-05 13:09 37.46650 126.43790 37 ft 10 kts 91°
2026-05-05 13:10 37.46617 126.43854 37 ft 8 kts 142°
2026-05-05 13:10 37.46575 126.43892 37 ft 6 kts 145°
2026-05-05 13:10 37.46539 126.43924 37 ft 8 kts 145°
2026-05-05 13:10 37.46481 126.43976 37 ft 13 kts 145°
2026-05-05 13:11 37.46402 126.44046 37 ft 14 kts 145°
2026-05-05 13:11 37.46353 126.44125 37 ft 12 kts 93°
2026-05-05 13:11 37.46390 126.44217 37 ft 13 kts 54°
2026-05-05 13:11 37.46453 126.44329 37 ft 17 kts 54°
2026-05-05 13:12 37.46519 126.44446 37 ft 16 kts 54°
2026-05-05 13:12 37.46570 126.44557 37 ft 11 kts 56°
2026-05-05 13:12 37.46634 126.44584 37 ft 11 kts 340°
2026-05-05 13:12 37.46723 126.44512 37 ft 23 kts 324°
2026-05-05 13:13 37.46880 126.44372 37 ft 28 kts 324°
2026-05-05 13:13 37.47042 126.44228 37 ft 28 kts 324°
2026-05-05 13:13 37.47204 126.44085 35 ft 28 kts 324°
2026-05-05 13:13 37.47365 126.43941 37 ft 28 kts 324°
2026-05-05 13:14 37.47527 126.43797 37 ft 28 kts 325°
2026-05-05 13:14 37.47688 126.43653 37 ft 28 kts 324°
2026-05-05 13:14 37.47849 126.43510 37 ft 28 kts 324°
2026-05-05 13:14 37.47963 126.43408 37 ft 12 kts 324°
2026-05-05 13:15 37.48026 126.43407 37 ft 8 kts 39°
2026-05-05 13:15 37.48064 126.43464 37 ft 8 kts 53°
2026-05-05 13:15 37.48086 126.43502 37 ft 0 kts 56°
2026-05-05 13:16 37.48112 126.43552 37 ft 12 kts 56°
2026-05-05 13:16 37.48148 126.43631 37 ft 8 kts 88°
2026-05-05 13:16 37.48122 126.43683 37 ft 6 kts 141°
2026-05-05 13:16 37.48035 126.43762 37 ft 41 kts 144°
2026-05-05 13:17 37.47576 126.44170 37 ft 118 kts 144°
2026-05-05 13:17 37.46717 126.44929 42 ft 180 kts 146°
2026-05-05 13:17 37.45680 126.45825 745 ft 177 kts 148°
2026-05-05 13:17 37.44754 126.46886 1407 ft 189 kts 120°
2026-05-05 13:18 37.44256 126.48478 1801 ft 202 kts 126°
2026-05-05 13:18 37.43285 126.49749 1919 ft 208 kts 142°
2026-05-05 13:18 37.42216 126.51111 2070 ft 234 kts 136°
2026-05-05 13:18 37.41098 126.52714 2414 ft 250 kts 134°
2026-05-05 13:19 37.39943 126.54414 2974 ft 259 kts 133°
2026-05-05 13:19 37.38762 126.56162 3609 ft 265 kts 133°
2026-05-05 13:19 37.37546 126.57937 4251 ft 267 kts 137°
2026-05-05 13:19 37.35982 126.59156 4706 ft 267 kts 165°
2026-05-05 13:20 37.34185 126.59853 5242 ft 273 kts 164°
2026-05-05 13:20 37.32402 126.60603 5942 ft 274 kts 163°
2026-05-05 13:20 37.30593 126.61383 6627 ft 275 kts 163°
2026-05-05 13:20 37.28923 126.62576 7089 ft 284 kts 134°
2026-05-05 13:21 37.27974 126.64758 7621 ft 291 kts 102°
2026-05-05 13:21 37.27956 126.67281 8243 ft 292 kts 79°
2026-05-05 13:21 37.28515 126.69743 8837 ft 295 kts 70°
2026-05-05 13:21 37.29226 126.72176 9461 ft 298 kts 69°
2026-05-05 13:22 37.29971 126.74612 10099 ft 300 kts 69°
2026-05-05 13:22 37.30735 126.77090 10483 ft 313 kts 69°
2026-05-05 13:22 37.31543 126.79729 10628 ft 334 kts 69°
2026-05-05 13:22 37.32397 126.82541 10797 ft 354 kts 69°
2026-05-05 13:23 37.33284 126.85487 10999 ft 373 kts 69°
2026-05-05 13:23 37.34209 126.88583 11548 ft 382 kts 69°
2026-05-05 13:23 37.35146 126.91731 12248 ft 386 kts 69°
2026-05-05 13:23 37.36088 126.94909 13100 ft 388 kts 70°
2026-05-05 13:24 37.37030 126.98093 13998 ft 388 kts 70°
2026-05-05 13:24 37.37974 127.01292 14677 ft 393 kts 70°
2026-05-05 13:24 37.38935 127.04553 15324 ft 398 kts 70°
2026-05-05 13:24 37.39904 127.07843 15996 ft 402 kts 70°
2026-05-05 13:25 37.40878 127.11157 16684 ft 406 kts 70°
2026-05-05 13:25 37.41860 127.14498 17365 ft 410 kts 70°
2026-05-05 13:25 37.42854 127.17888 17994 ft 415 kts 70°
2026-05-05 13:25 37.43862 127.21326 18602 ft 420 kts 70°
2026-05-05 13:26 37.44874 127.24786 19190 ft 423 kts 70°
2026-05-05 13:26 37.45883 127.28235 19785 ft 426 kts 70°
2026-05-05 13:26 37.46909 127.31749 20377 ft 429 kts 70°
2026-05-05 13:26 37.47942 127.35292 20953 ft 433 kts 70°
2026-05-05 13:27 37.48896 127.38916 21486 ft 437 kts 75°
2026-05-05 13:27 37.49556 127.42668 22019 ft 440 kts 79°
2026-05-05 13:27 37.50143 127.46467 22577 ft 444 kts 79°
2026-05-05 13:27 37.50732 127.50296 23135 ft 447 kts 79°
2026-05-05 13:28 37.51336 127.54152 23674 ft 450 kts 78°
2026-05-05 13:28 37.51836 127.58055 24061 ft 454 kts 86°
2026-05-05 13:28 37.51752 127.62040 24420 ft 458 kts 98°
2026-05-05 13:28 37.51084 127.65979 24880 ft 460 kts 107°
2026-05-05 13:29 37.50021 127.69789 25279 ft 462 kts 110°
2026-05-05 13:29 37.48923 127.73564 25625 ft 467 kts 110°
2026-05-05 13:29 37.47800 127.77417 26072 ft 469 kts 110°
2026-05-05 13:29 37.46668 127.81326 26534 ft 471 kts 110°
2026-05-05 13:30 37.45563 127.85164 26939 ft 474 kts 109°
2026-05-05 13:30 37.44443 127.89076 27290 ft 477 kts 109°
2026-05-05 13:30 37.43318 127.93019 27649 ft 481 kts 109°
2026-05-05 13:30 37.42185 127.96998 28004 ft 484 kts 109°
2026-05-05 13:31 37.41048 128.00990 28367 ft 486 kts 109°
2026-05-05 13:31 37.39903 128.05009 28706 ft 489 kts 109°
2026-05-05 13:31 37.38748 128.09052 29025 ft 492 kts 110°
2026-05-05 13:31 37.37585 128.13118 29286 ft 496 kts 110°
2026-05-05 13:32 37.36412 128.17209 29597 ft 498 kts 110°
2026-05-05 13:32 37.35244 128.21278 30202 ft 493 kts 110°
2026-05-05 13:32 37.34081 128.25322 30614 ft 492 kts 110°
2026-05-05 13:32 37.32915 128.29370 30912 ft 493 kts 110°
2026-05-05 13:33 37.31747 128.33420 31194 ft 494 kts 110°
2026-05-05 13:33 37.30575 128.37475 31522 ft 493 kts 110°
2026-05-05 13:33 37.29401 128.41530 31837 ft 493 kts 110°
2026-05-05 13:33 37.28231 128.45570 32156 ft 493 kts 110°
2026-05-05 13:34 37.27056 128.49621 32450 ft 493 kts 110°
2026-05-05 13:34 37.25880 128.53669 32728 ft 494 kts 111°
2026-05-05 13:34 37.24703 128.57713 33007 ft 494 kts 111°
2026-05-05 13:34 37.23517 128.61780 33075 ft 498 kts 111°